Location: Shepherdstown, WV
(39.4326°N, 77.8042°W)
Time: 04:25:57
(UTC-04:00)

Vanguard 1 - Pass Details

Date: 02 October 2021
Orbit: 653 x 3829 km, 34.2° (Epoch: 18 October)

Event Time Altitude Azimuth Distance (km) Brightness Sun altitude
Rises 21:26:37 0° 271° (W) 5,757 15.0 -30.2°
Reaches altitude 10° 21:29:46 10° 270° (W) 5,087 14.5 -30.8°
Maximum altitude 21:46:14 72° 190° (S) 3,543 12.6 -33.7°
Enters shadow 21:54:10 50° 126° (SE) 4,313 12.7 -35.0°
